STARLINK-34204 (66213 NORAD) Tracking and Keplerian Element Data

This shows tracking and keplerian element data for the satellite.

Feedback or suggestion? Click here.




ElementValue
Catalog66213
NameSTARLINK-34204
Epoch Orbit944
Epoch Day354.06702969
Epoch Year2025
RAAN241.5501
Inclination53.1601
Eccentricity0.0001181
Argument of Perigee67.2128
Mean Anonmoly292.9001
Mean Motion15.3959173
Decay Rate0.00037304
L11 66213U 25244H 25354.06702969 .00037304 00000+0 93889-3 0 9999
L22 66213 53.1601 241.5501 0001181 67.2128 292.9001 15.39591730 9444



Live tracking and technical data element details for STARLINK-34204 (NORAD 66213). STARLINK-34204 can be tracked NOW for your location showing map with azimuth and elevation plus other details from your city location.







IsCatalogInMostPopularTable: catalog: 66213, numindb: 12
Update: records affected: 1



GetName: 66213 STARLINK-34204

Hit Count: updated at: Wed, 15 Apr 2026 01:33:33 GMT